Location: Peebles
(55.6412°N, 3.1714°W)
Time: 14:42:51
(UTC+01:00)

Daily predictions for brighter satellites

Satellite Brightness Start Highest point End
(mag) Time Altitude Azimuth Time Altitude Azimuth Time Altitude Azimuth
MOS 1-B 4.4 19:01:35 10° SE 19:07:18 62° ENE 19:13:02 10° NNW
SL-08 RB Rocket 4.3 19:04:23 10° S 19:08:57 64° WSW 19:13:37 10° NNW
Cosmos 1844 Rocket 3.0 19:07:09 10° NNW 19:12:43 52° NE 19:18:16 10° ESE
Resurs 01 Rocket 3.7 19:12:18 10° ENE 19:13:10 10° NE 19:14:02 10° NE
Cosmos 1943 Rocket 4.1 19:10:31 10° NW 19:13:59 17° N 19:17:28 10° NE
Cosmos 2208 Rocket 4.1 19:08:42 10° NNW 19:14:05 64° ENE 19:19:28 10° SE
OBJECT-B 2.3 19:15:55 10° E 19:16:58 12° ENE 19:18:02 10° NE
Lacrosse 4 Rocket 3.1 19:18:47 10° SE 19:20:53 14° ESE 19:23:00 10° ENE
Cosmos 2369 3.7 19:16:11 10° SSW 19:21:54 81° ESE 19:27:38 10° NE
SL-16 R/B 3.0 19:21:52 10° SSE 19:26:44 30° ESE 19:31:36 10° NE
Cosmos 2278 3.9 19:21:25 10° S 19:26:55 53° ESE 19:32:26 10° NE
ATLAS 2AS CENTAUR R/B 3.6 19:19:51 10° WNW 19:27:02 46° N 19:33:50 10° ENE
Cosmos 2084 3.3 19:23:18 10° WSW 19:27:07 76° NW 19:30:59 10° NE
Cosmos 1908 Rocket 4.0 19:25:15 10° SSE 19:29:16 39° E 19:33:19 10° NNE
IRIDIUM 103 4.4 19:24:19 10° SSE 19:29:23 54° E 19:34:28 10° NNE
Cosmos 1025 Rocket 3.7 19:25:27 10° N 19:29:23 33° ENE 19:33:19 10° SE
Cosmos 968 Rocket 4.1 19:24:40 10° SSE 19:29:23 35° ESE 19:34:06 10° NE
MINOTAUR 4 R/B 3.9 19:26:47 10° NNE 19:30:17 76° ESE 19:33:46 10° S
Meteor 2-21 4.4 19:25:20 10° S 19:31:15 62° E 19:37:15 10° NNE
Cosmos 2263 Rocket 3.6 19:27:21 10° NW 19:32:41 42° WSW 19:38:00 10° S
Cosmos 2278 Rocket 3.6 19:28:16 10° NNW 19:32:48 24° NNE 19:37:10 11° ENE
USA 186 3.3 19:30:29 10° ESE 19:33:03 22° ENE 19:35:42 10° N
Cosmos 1674 Rocket 4.0 19:28:57 10° NNW 19:33:22 70° W 19:37:46 10° S
Okean-O 3.7 19:30:11 10° ESE 19:33:50 26° ENE 19:37:31 10° N
Cosmos 1809 Rocket 4.4 19:30:59 10° S 19:37:04 80° E 19:43:12 10° NNE
ARGOS Delta rocket 4.1 19:32:07 10° NNE 19:37:18 54° E 19:42:10 10° S
Cosmos 1782 Rocket 4.4 19:34:08 10° SSE 19:37:52 28° E 19:41:37 10° NNE
Spot 1 4.1 19:34:04 10° NNE 19:38:10 48° E 19:42:07 10° S
NOSS 3-4 (A) 4.0 19:32:33 10° NW 19:38:54 56° NNE 19:45:22 13° E
NOSS 3-4 (C) 4.0 19:32:40 10° NW 19:39:01 56° NNE 19:45:28 13° E
Cosmos 2369 Rocket 4.3 19:36:53 10° NW 19:40:38 17° N 19:44:23 10° NE
YAOGAN 1 2.5 19:37:45 10° SSE 19:42:05 79° ENE 19:46:26 10° NNW
Cosmos 1437 Rocket 2.9 19:42:18 10° SSE 19:45:50 42° E 19:49:25 10° NNE
Cosmos 2292 Rocket 3.7 19:41:44 10° SSE 19:45:53 39° E 19:49:13 10° NNE
IRIDIUM 106 4.3 19:42:27 10° S 19:47:38 72° E 19:52:51 10° N
SKYMED 2 3.6 19:44:02 10° NNE 19:48:25 85° WNW 19:52:45 10° SSW
Meteor 1-24 Rocket 3.6 19:43:35 10° N 19:48:54 68° ENE 19:54:16 10° SSE
SJ-6B 3.5 19:47:55 13° SE 19:50:49 33° ENE 19:54:18 10° N
Cosmos 1805 4.1 19:48:45 10° SSW 19:52:32 53° WNW 19:56:23 10° N
Cosmos 1844 3.6 19:48:14 10° NNW 19:53:49 76° NE 19:59:25 10° SE
COBE Rocket 4.0 19:49:08 10° S 19:53:55 76° WSW 19:58:38 10° NNW
Meteor 2-10 4.3 19:48:40 10° SSW 19:54:14 79° WNW 19:59:38 10° NNE
Okean O Rocket 1.6 19:50:32 10° SSE 19:54:55 87° ENE 19:59:22 10° NNW
Cosmos 1733 4.4 19:51:48 10° SW 19:55:24 44° WNW 19:59:01 10° N
HJ-1C 3.2 19:52:51 10° SSE 19:55:57 81° WSW 19:59:04 10° NNW
Cosmos 2026 Rocket 4.2 19:51:06 10° SSE 19:56:47 44° E 20:02:30 10° NNE
Cosmos 1697 Rocket 3.9 19:55:16 10° WSW 20:00:37 43° NW 20:06:01 10° NNE
USA 215 3.4 19:55:29 11° ENE 20:01:48 58° SSE 20:08:14 10° SW
CSL-04 Debris 4.3 19:57:03 10° SE 20:02:18 55° ENE 20:07:35 10° N
Cosmos 1975 Rocket 3.0 19:58:10 10° N 20:02:36 65° ENE 20:06:56 10° SSE
Nadezhda 4 Rocket 4.0 19:58:52 10° S 20:05:12 86° E 20:11:32 10° NNE
Cosmos 1726 2.8 20:01:43 10° SSW 20:05:18 56° WNW 20:08:56 10° N
Cosmos 1553 Rocket 4.2 20:00:13 10° N 20:06:25 50° ENE 20:12:37 10° SE
Cosmos 2333 Rocket 3.3 20:03:20 10° SSE 20:07:28 21° ESE 20:11:35 10° NE
Cosmos 2360 Rocket 2.9 20:03:34 10° SSE 20:08:24 30° ESE 20:13:15 10° NE
Landsat 5 4.4 20:04:37 10° NNE 20:08:34 29° E 20:12:27 10° SSE
Feng Yun 1-1 Rocket 4.2 20:08:07 10° SSE 20:13:35 83° WSW 20:19:01 10° NNW
ASTEX 1 4.4 20:08:56 10° N 20:13:46 50° WNW 20:18:35 10° SSW
Meteor 1-22 Rocket 4.2 20:08:32 10° S 20:13:57 63° E 20:19:40 10° NNE
Cosmos 1766 3.9 20:11:33 10° SSW 20:15:26 60° WNW 20:19:23 10° N
EP 1 4.4 20:17:09 10° NW 20:19:51 82° NE 20:20:46 41° ESE
H-2A R/B 3.2 20:21:00 28° E 20:21:36 30° ENE 20:24:58 10° N
CZ-4 R/B 2.0 20:18:57 10° S 20:23:05 60° WSW 20:27:14 10° NNW
CSL-04 Rocket 3.6 20:20:58 11° SSE 20:26:11 73° ENE 20:31:39 10° NNW
BREEZE M DEB (TANK) 4.2 20:24:55 10° SSW 20:27:48 15° SSE 20:27:59 15° SSE
DMSP B5D1-3 4.4 20:24:33 10° NNE 20:29:42 80° ESE 20:34:50 10° SSW
COSMO-SKYMED 1 4.3 20:32:21 10° N 20:36:19 35° WNW 20:40:15 10° SW
IRS-1C Rocket 4.0 20:32:56 17° SSE 20:37:02 76° ENE 20:42:19 10° NNW
Cosmos 921 Rocket 3.4 20:33:14 10° NNW 20:37:38 49° ENE 20:38:52 38° ESE
Cosmos 2322 Rocket 2.1 20:32:57 10° SSW 20:38:35 64° ESE 20:44:15 10° NE
IGS 5A 3.3 20:37:01 21° SSE 20:39:45 87° ENE 20:43:55 10° NNW
Cosmos 1470 3.0 20:38:22 10° SSW 20:42:12 69° WNW 20:46:03 10° N
Cosmos 1980 Rocket 3.5 20:38:24 10° WSW 20:43:42 41° NW 20:49:01 10° NNE
USA 290 3.9 20:41:22 10° SSW 20:42:39 22° S 20:42:39 22° S
Cosmos 2237 4.1 20:39:26 10° SSW 20:45:07 72° ESE 20:50:49 10° NE
OBJECT-B 1.2 20:46:15 41° WSW 20:46:32 43° W 20:48:59 10° NNW
Cosmos 2315 Rocket 4.5 20:40:58 10° N 20:46:59 41° ENE 20:48:55 33° ESE
Cosmos 783 Rocket 4.4 20:43:15 10° NNW 20:48:34 82° ENE 20:51:01 32° SSE
Resurs 01 Rocket 1.9 20:48:02 43° E 20:48:39 46° ENE 20:52:55 10° N
Cosmos 1092 Rocket 4.1 20:42:41 10° SSW 20:49:00 82° WNW 20:55:17 10° N
Landsat 7 3.7 20:46:46 29° SSE 20:49:10 77° ENE 20:53:55 10° NNW
SL-24 R/B 4.4 20:46:29 18° SSE 20:50:34 86° ENE 20:55:16 10° NNW
Cosmos 773 Rocket 4.0 20:46:36 10° NNW 20:51:57 90° WSW 20:54:34 31° SSE
Cosmos 1486 Rocket 3.9 20:48:55 10° SSW 20:54:11 65° ESE 20:59:30 10° NNE
Resurs 1-3 3.5 20:52:41 32° SSE 20:54:42 90° W 20:59:08 10° NNW
Cosmos 1844 Rocket 3.8 20:51:15 10° NW 20:56:35 42° WSW 21:01:52 10° S
Cosmos 158 Rocket 3.7 20:52:26 10° NNW 20:57:20 77° ENE 20:58:47 46° SE
Sich 1 Rocket 3.6 20:57:42 54° E 20:57:43 54° E 21:02:03 10° NNE
Lacrosse 4 Rocket 1.2 20:54:37 10° SSW 20:58:44 77° SE 21:00:05 42° NE
Cosmos 1943 Rocket 3.4 20:54:57 10° NNW 20:59:39 27° NNE 21:01:06 24° ENE
MOS 1 4.3 20:57:59 38° SE 21:00:03 62° ENE 21:05:40 10° NNW
Cosmos 1300 Rocket 3.5 20:59:18 10° SSW 21:03:39 84° WNW 21:08:04 10° N
Cosmos 1758 3.2 21:02:28 21° SSW 21:05:07 88° W 21:09:11 10° NNE
USA 186 3.1 21:03:39 25° SSW 21:05:08 40° W 21:08:22 10° NNW
Meteor 1-16 Rocket 4.4 21:03:47 34° SSE 21:06:01 53° E 21:11:46 10° NNE
NOSS 2-1 (C) 4.0 21:02:50 10° NW 21:06:27 46° NNE 21:06:53 45° NE
Cosmos 1025 Rocket 4.5 21:03:03 10° NNW 21:07:01 36° W 21:11:00 10° SSW
Aureole 1 Rocket 3.9 21:01:40 10° S 21:08:24 56° ESE 21:13:40 10° NE
MetOp-B 4.4 21:08:14 46° E 21:08:56 48° ENE 21:14:05 10° N
Okean-O 3.2 21:07:25 23° S 21:10:03 56° WSW 21:14:26 10° NNW
DNEPR-1 R/B 4.0 21:05:09 10° SW 21:10:06 73° SE 21:14:43 18° NE
SL-16 R/B 2.5 21:04:49 10° SW 21:10:28 68° NW 21:16:10 10° NNE
Cosmos 968 Rocket 4.3 21:05:56 10° SW 21:11:03 52° NW 21:16:10 10° NNE
Cosmos 1375 Rocket 4.5 21:06:50 10° NW 21:13:24 85° SW 21:15:45 43° SE
Cosmos 2266 Rocket 4.1 21:13:50 43° SE 21:15:25 53° E 21:21:34 10° NNE
NOSS 2-1 (D) 3.8 21:13:00 10° NW 21:16:41 51° NNE 21:16:48 51° NE
Cosmos 2278 Rocket 2.3 21:12:23 10° NNW 21:18:01 61° NE 21:19:00 53° E
deb Chang Zheng 4 3.4 21:17:54 68° SSW 21:18:19 78° WSW 21:22:29 10° NNW
S3M 3.9 21:12:40 10° NNW 21:18:58 89° E 21:21:49 35° S
COSMOS 2455 3.8 21:13:23 10° S 21:26:30 - NE 21:16:34 30° S
ATLAS 2AS CENTAUR R/B 3.1 21:11:58 10° NW 21:19:13 57° NNE 21:21:43 39° E
Cosmos 1703 3.7 21:17:32 10° NNW 21:21:20 58° W 21:21:43 55° SW
MetOp-A 3.4 21:23:10 73° WSW 21:23:14 73° WSW 21:27:21 10° NNW
SJ-6B 4.4 21:23:27 20° SW 21:25:24 31° W 21:28:53 10° NNW
ERS-1 Rocket 4.0 21:26:55 33° NE 21:26:55 33° NE 21:30:49 10° N
Cosmos 2369 Rocket 3.8 21:22:15 10° NNW 21:26:47 23° NNE 21:28:19 21° NE
Cosmos 1655 Rocket 4.0 21:26:06 53° SE 21:27:02 58° E 21:33:11 10° NNE
Cosmos 2219 Rocket 4.1 21:32:14 15° NE 21:32:14 15° NE 21:33:15 10° NE
Terra 3.2 21:30:29 26° NE 21:30:29 26° NE 21:33:32 10° N
NOSS 3-4 (A) 3.9 21:23:29 10° NW 21:30:10 70° SW 21:32:47 42° SSE
NOSS 3-4 (C) 3.9 21:23:36 10° NW 21:30:17 70° SW 21:32:53 43° SSE
Okean O Rocket 4.5 21:29:14 10° SW 21:31:53 16° W 21:34:34 10° NW
Cosmos 1908 3.9 21:33:13 52° NW 21:33:13 52° NW 21:36:41 10° N
Cosmos 1825 4.5 21:30:55 10° N 21:31:54 16° NNE 21:31:54 16° NNE
USA 281 3.6 21:33:19 43° ENE 21:34:34 48° NE 21:40:50 10° NNW
Cosmos 883 Rocket 4.4 21:28:42 10° N 21:35:06 83° E 21:36:45 53° SSE
Spot 2 4.2 21:37:23 70° W 21:37:23 70° W 21:41:50 10° NNW
Cosmos 1536 Rocket 4.1 21:34:16 10° NNW 21:38:32 53° W 21:39:04 50° WSW
Meteor 2-10 Rocket 4.0 21:39:42 51° ENE 21:39:42 51° ENE 21:44:21 10° NNE
Cosmos 1953 4.4 21:42:31 19° NNE 21:42:31 19° NNE 21:43:43 10° NNE
Ariane Rocket 2.9 21:42:00 80° ENE 21:42:00 80° ENE 21:47:05 10° NNW
Gbstr 26 Del rocket 4.5 21:34:11 10° W 21:42:00 68° S 21:43:53 53° SE
Okean 2 Rocket 3.3 21:43:03 69° NNW 21:43:03 69° NNW 21:47:14 10° N
NOSS 3-3 (A) 3.8 21:37:22 10° SW 21:43:09 74° SE 21:44:53 50° ENE
NOSS 3-3 (C) 3.8 21:37:29 10° SW 21:43:15 73° SE 21:44:50 52° ENE
Cosmos 1680 Rocket 4.1 21:38:33 10° NNW 21:43:16 44° NE 21:43:16 44° NE
USA 215 3.2 21:42:49 45° ENE 21:45:07 86° NNW 21:51:41 10° W
SPOT 1/Viking Rocket 3.7 21:46:05 58° SSW 21:46:52 67° WSW 21:52:01 10° NNW
Cosmos 2333 Rocket 2.1 21:45:13 10° SSW 21:51:00 86° ESE 21:56:47 10° NE
Cosmos 1503 Rocket 3.9 21:46:11 10° SSW 21:51:22 81° WNW 21:56:37 10° NNE
Cosmos 2360 Rocket 2.4 21:46:25 10° SW 21:52:03 68° NW 21:57:42 10° NNE
SPOT 3 Rocket 3.7 21:54:02 64° NNE 21:54:02 64° NNE 21:58:35 10° NNW
CARTOSAT-1 4.3 21:54:37 48° NNW 21:54:37 48° NNW 21:57:47 10° NNW
H-2A R/B 3.8 21:57:28 34° W 21:57:28 34° W 22:00:32 10° NNW
Meteor 1-11 4.1 21:53:43 10° NNW 21:59:26 86° WSW 21:59:27 86° WSW
In-Cosmos 22 Rocket 4.2 21:57:17 10° NNW 22:02:28 71° NNE 22:02:28 71° NNE
Spot 2 Rocket 4.1 22:06:30 49° N 22:06:30 49° N 22:10:21 10° NNW
Cosmos 1538 Rocket 4.4 22:02:56 10° NNW 22:08:08 60° WSW 22:08:08 60° WSW
SPOT 5 3.8 22:12:49 41° N 22:12:49 41° N 22:15:50 10° NNW
Cosmos 923 Rocket 4.4 22:06:51 10° NNW 22:11:08 59° NNW 22:11:08 59° NNW
Meteor 2-17 Rocket 4.4 22:18:00 83° NNW 22:18:00 83° NNW 22:24:00 10° NNE
SeaSat 1 4.2 22:18:08 23° NNE 22:18:08 23° NNE 22:21:40 10° NNW
Cosmos 2322 Rocket 3.5 22:17:42 10° WSW 22:23:01 38° NW 22:28:21 10° NNE
Resurs 01 Rocket 3.3 22:25:36 29° W 22:25:36 29° W 22:29:14 10° NNW
Lacrosse 4 Rocket 3.6 22:34:10 10° W 22:36:23 23° WNW 22:36:23 23° WNW
SJ 16-02 3.8 22:42:51 18° N 22:42:51 18° N 22:44:10 10° NNE
Cosmos 1867 4.4 22:36:07 10° NW 22:40:08 48° NNW 22:40:08 48° NNW
Cosmos 1943 Rocket 2.9 22:38:39 10° NNW 22:42:37 48° NNW 22:42:37 48° NNW
SL-16 R/B 4.2 22:50:57 10° W 22:55:37 25° NNW 23:00:17 10° NNE
Cosmos 2278 Rocket 3.6 22:56:48 10° NW 23:00:50 32° W 23:00:50 32° W
Terra 3.7 23:09:22 28° NW 23:09:22 28° NW 23:11:42 10° NNW
ATLAS 2AS CENTAUR R/B 3.1 23:03:18 10° NW 23:09:08 56° W 23:09:08 56° W
Cosmos 2219 Rocket 3.6 23:13:54 33° N 23:13:54 33° N 23:17:20 10° NNE
Cosmos 2369 Rocket 3.4 23:06:21 10° NNW 23:10:05 39° N 23:10:05 39° N
USA 281 3.8 23:20:11 50° WNW 23:20:11 50° WNW 23:25:31 10° NW
ADEOS Rocket 4.1 23:26:48 37° N 23:26:48 37° N 23:30:21 10° NNW
USA 215 3.9 23:30:11 48° WNW 23:30:11 48° WNW 23:34:43 10° WNW
Cosmos 2333 Rocket 3.8 23:30:51 10° W 23:35:57 31° NW 23:41:03 10° NNE
Cosmos 2360 Rocket 4.2 23:32:29 10° W 23:37:05 25° NNW 23:41:41 10° NNE
Cosmos 2237 Rocket 4.5 23:44:31 16° NNE 23:44:31 16° NNE 23:45:35 10° NNE
